{"data":{"norad_id":47399,"intl_designator":"2021-005BC","name":"STARLINK-2121","alt_names":[],"object_type":"PAYLOAD","status":"ACTIVE","operator":null,"country":"US","launch_date":"2021-01-20","launch_site_code":"AFETR","launch_vehicle":null,"mission":null,"orbit_class":"UNKNOWN","rcs_meters":null,"size_class":null,"mass_kg":null,"dimensions":null,"purposes":["comms"],"wikipedia_slug":null,"has_3d_model":false,"image_url":null,"decayed_at":null,"tle_current":{"epoch":"2026-09-19T12:27:47.598624Z","epoch_age_seconds":110577,"freshness":"FRESH","line1":"1 47399U 21005BC  26262.51930091 -.00000371  00000+0 -19529-6 0  9990","line2":"2 47399  53.1598 214.6472 0001316  87.2229 272.8923 15.31693284313093","mean_motion":15.31693284,"eccentricity":0.0001316,"inclination_deg":53.1598,"raan_deg":214.6472,"arg_perigee_deg":87.2229,"mean_anomaly_deg":272.8923,"bstar":-1.9529e-7,"rev_number":31309,"period_min":94.01360017976,"perigee_km":469.85870049811,"apogee_km":471.66133019255,"semimajor_km":6848.8970153453,"source":"CELESTRAK","updated_at":"2026-09-20T09:00:38.595134Z"}}}